Location: Unspecified
(54.1780°N, 0.0000°E)
Time: 16:05:42
(UTC+00:00)

Explorer 7 - Pass Details

Date: 20 August 2020
Orbit: 485 x 679 km, 50.3° (Epoch: 23 September)

Event Time Altitude Azimuth Distance (km) Brightness Sun altitude
Rises 21:07:37 0° 276° (W) 2,659 11.2 -14.1°
Reaches altitude 10° 21:10:16 10° 260° (W) 1,736 9.8 -14.3°
Maximum altitude 21:13:12 20° 211° (SSW) 1,188 8.4 -14.6°
Enters shadow 21:14:28 18° 184° (S) 1,293 8.3 -14.8°
